[[{"header":{"parameterUnit":"m.s-1","parameterCategory":1,"la1":30.2991,"la2":30.254,"lo1":-89.0895,"lo2":-89.0444,"dy":0.0017,"dx":0.0017,"nx":28,"ny":28,"refTime":"2024-07-30T09:00:00:Z","depth":0,"parameterNumber":2,"parameterNumberName":"U-component_of_WINDS"},"data":[0,0,0,0,0,0,0,0,0,0,0,0,0,0,0,0,0,0,0,0,0,0,0,0,0,0,0,0,0,0,0,0,0,0,0,0,0,0,0,0,0,0,0,0,0,0,0,0,0,0,0,0,0,0,0,0,0,0,3.6805,3.6806,0,3.6893,3.6894,3.6895,3.6834,3.6831,3.6829,3.6826,3.6914,3.6919,3.6924,0,0,0,0,0,0,0,0,0,0,0,0,0,3.6579,3.6584,3.6805,3.6806,3.6807,3.6893,3.6894,3.6895,3.6834,3.6831,3.6828,3.6825,3.6913,3.6919,3.6925,0,0,0,0,0,0,0,0,0,0,0,0,0,3.6673,3.6585,3.6804,3.6787,3.6786,3.6893,3.6894,3.6896,3.6835,3.6831,3.6827,3.6823,3.6911,3.6918,3.6925,3.7054,0,0,3.6948,3.6951,0,0,0,0,0,0,0,0,3.6668,3.6682,3.6788,3.6788,3.6788,3.6848,3.6847,3.6949,3.6836,3.6817,3.6826,3.6821,3.6896,3.6904,3.693,3.7058,3.7061,3.6949,3.6953,3.6956,3.6958,0,0,0,0,0,0,0,3.6662,3.6677,3.684,3.679,3.679,3.6773,3.6782,3.6866,3.6878,3.6818,3.6814,3.6825,3.6895,3.6923,3.6931,3.7063,3.6948,3.6955,3.696,3.6962,3.7296,3.73,0,0,0,0,0,0,3.6657,3.6672,3.6837,3.6842,3.6717,3.6781,3.6791,3.6833,3.6877,3.688,3.6829,3.6822,3.6912,3.6923,3.6934,3.7083,3.6956,3.6963,3.6967,3.7291,3.7297,3.7301,0,0,0,0,0,0,3.6652,3.6672,3.6833,3.6756,3.6775,3.6789,3.6837,3.6837,3.6865,3.6885,3.6887,3.6855,3.6909,3.6924,3.7023,3.7086,3.6966,3.6973,3.7286,3.7293,3.7299,3.7385,0,0,0,0,0,0,3.6646,3.6671,3.6721,3.6758,3.678,3.6923,3.6841,3.6842,3.6878,3.687,3.691,3.6913,3.6907,3.7013,3.7031,3.7094,3.6979,3.728,3.7289,3.7297,3.7377,3.7394,3.7409,0,0,0,0,0,3.6638,3.6742,3.6724,3.6744,3.6843,3.6926,3.6939,3.693,3.6883,3.6932,3.6945,3.6912,3.7077,3.7023,3.7043,3.7109,3.7276,3.7287,3.7296,3.737,3.7391,3.7409,0,0,0,0,0,0,3.6712,3.6747,3.6727,3.6846,3.6884,3.6916,3.6978,3.6953,3.7005,3.6995,3.6982,3.6992,3.7095,3.7113,3.7053,3.7233,3.7169,3.7183,3.7218,3.7238,3.7254,3.7246,3.6985,0,0,0,0,0,3.6743,3.6809,3.6835,3.6937,3.6957,3.6965,3.7001,3.6991,3.7029,3.7044,3.7064,3.7102,3.7161,3.7201,3.7258,3.738,3.7386,3.7435,3.7451,3.7464,3.7476,3.7537,3.7558,3.7334,3.7334,3.7334,0,0,3.6806,3.6833,3.6875,3.6953,3.6981,3.7047,3.6978,3.7053,3.7101,3.7056,3.715,3.7166,3.7207,3.7317,3.7367,3.7335,3.7539,3.7477,3.7487,3.7491,3.755,3.7571,3.759,3.7341,3.734,3.7338,0,0,3.6953,3.6982,3.7069,3.7098,3.7141,3.7145,3.7166,3.7201,3.721,3.7305,3.727,3.7328,3.7432,3.7461,3.749,3.7647,3.7616,3.7666,3.7748,3.7808,3.7826,3.7841,3.7893,3.7913,3.7678,3.7678,3.7678,0,3.7026,3.7126,3.7116,3.7192,3.7226,3.7188,3.7274,3.7303,3.7362,3.7385,3.7349,3.7477,3.7502,3.7616,3.7654,3.768,3.7701,3.766,3.7824,3.784,3.7854,3.7903,3.7923,3.7683,3.7683,3.7682,3.7682,0,3.7211,3.7281,3.7345,3.7403,3.7444,3.7525,3.7526,3.7568,3.7555,3.7562,3.7657,3.7685,3.7745,3.7772,3.776,3.7884,3.7863,3.7826,3.776,3.7881,3.7927,3.7946,3.7691,3.7689,3.7688,3.7686,0,0,3.7407,3.7457,3.7481,3.7505,3.7549,3.7601,3.768,3.7738,3.7773,3.7816,3.7878,3.7966,3.7932,3.7964,3.7955,3.8008,3.8125,3.7964,3.7965,3.799,3.8259,3.8284,3.8306,3.8107,3.8111,3.8113,3.8254,0,3.7555,3.7691,3.7683,3.781,3.7872,3.7836,3.7903,3.7937,3.7945,3.7998,3.8007,3.8068,3.802,3.8038,3.809,3.81,3.8179,3.8091,3.8162,3.8165,3.8149,3.8331,3.8358,3.849,3.8273,3.8276,3.8278,0,3.7745,3.7792,3.7925,3.7956,3.7982,3.8043,3.8094,3.8146,3.8182,3.8184,3.8219,3.82,3.8276,3.8211,3.8314,3.8254,3.8283,3.8292,3.8297,3.8301,3.8226,3.8336,3.8532,3.855,3.8307,3.8305,3.8303,0,3.7869,3.7967,3.8058,3.808,3.812,3.8163,3.8182,3.8214,3.8248,3.8293,3.8314,3.8368,3.8396,3.8437,3.8432,3.8385,3.8535,3.847,3.8536,3.8536,3.8567,3.8564,3.8767,3.8592,3.8592,3.8591,3.8591,0,3.8033,3.8114,3.8114,3.817,3.8259,3.8249,3.8338,3.8351,3.838,3.8436,3.8409,3.8462,3.8453,3.8506,3.8503,3.8586,3.86,3.8602,3.8599,3.8602,3.8601,3.8618,3.8608,3.8596,3.8595,3.8594,3.8593,0,3.8186,3.819,3.8286,3.8316,3.8325,3.8389,3.8414,3.8465,3.8471,3.8542,3.8558,3.8566,3.8626,3.8626,3.8695,3.8693,3.8793,3.8782,3.8781,3.8777,3.8842,3.8834,3.906,3.9087,3.8898,3.89,3.8901,0,3.8289,3.835,3.8386,3.8422,3.8443,3.8501,3.8535,3.8528,3.8565,3.8609,3.8654,3.8712,3.8757,3.8854,3.8865,3.8917,3.8904,3.898,3.8912,3.8912,3.8901,3.8895,3.89,3.8992,3.8994,3.8996,3.8997,0,3.8468,3.8466,3.8518,3.8569,3.8611,3.8651,3.8688,3.8719,3.8715,3.8757,3.8818,3.8853,3.8922,3.8979,3.9028,3.9045,3.9019,3.9019,3.9036,3.9038,3.9033,3.9032,3.8813,3.9013,3.9011,3.901,3.9009,3.9009,3.8597,3.8648,3.8681,3.8738,3.8765,3.8799,3.8848,3.8859,3.891,3.8965,3.8958,3.9025,3.9056,3.9119,3.9141,3.9192,3.9165,3.9191,3.9197,3.9203,3.9208,3.9028,3.9201,3.9201,3.92,3.92,3.92,0,3.8771,3.879,3.8843,3.8895,3.8939,3.8913,3.8951,3.8989,3.9049,3.908,3.9125,3.9193,3.9247,3.9262,3.9313,3.9351,3.934,3.9364,3.9359,3.9363,3.9231,3.9209,3.9371,3.9371,3.9371,3.9371,3.9371,3.9371,3.8867,3.8952,3.8953,3.905,3.9068,3.9133,3.9157,3.9188,3.9212,3.929,3.9334,3.9344,3.9368,3.942,3.9467,3.947,3.9488,3.9516,3.9514,3.939,3.9373,3.9356,3.9335,3.9522,3.9522,3.9641,3.9642,3.9643]},{"header":{"parameterUnit":"m.s-1","parameterCategory":1,"la1":30.2991,"la2":30.254,"lo1":-89.0895,"lo2":-89.0444,"dy":0.0017,"dx":0.0017,"nx":28,"ny":28,"refTime":"2024-07-30T09:00:00:Z","depth":0,"parameterNumber":3,"parameterNumberName":"V-component_of_WINDS"},"data":[0,0,0,0,0,0,0,0,0,0,0,0,0,0,0,0,0,0,0,0,0,0,0,0,0,0,0,0,0,0,0,0,0,0,0,0,0,0,0,0,0,0,0,0,0,0,0,0,0,0,0,0,0,0,0,0,0,0,1.4618,1.4618,0,1.4636,1.4636,1.4637,1.4618,1.4617,1.4616,1.4615,1.4636,1.4637,1.4639,0,0,0,0,0,0,0,0,0,0,0,0,0,1.4566,1.4567,1.4618,1.4618,1.4618,1.4636,1.4636,1.4637,1.4618,1.4617,1.4616,1.4615,1.4636,1.4637,1.4639,0,0,0,0,0,0,0,0,0,0,0,0,0,1.4587,1.4567,1.4617,1.4611,1.461,1.4636,1.4636,1.4637,1.4618,1.4617,1.4616,1.4615,1.4635,1.4637,1.4639,1.4673,0,0,1.4645,1.4645,0,0,0,0,0,0,0,0,1.4585,1.4589,1.4611,1.4611,1.4611,1.4623,1.4626,1.4649,1.4618,1.4615,1.4615,1.4614,1.4633,1.4635,1.4641,1.4674,1.4675,1.4645,1.4646,1.4647,1.4647,0,0,0,0,0,0,0,1.4584,1.4588,1.4625,1.4612,1.4611,1.4607,1.4608,1.463,1.463,1.4615,1.4614,1.4616,1.4632,1.4639,1.4641,1.4675,1.4645,1.4646,1.4648,1.4648,1.4734,1.4736,0,0,0,0,0,0,1.4583,1.4587,1.4624,1.4625,1.4595,1.4608,1.461,1.462,1.463,1.463,1.4617,1.4615,1.4636,1.4639,1.4642,1.4681,1.4647,1.4648,1.465,1.4733,1.4735,1.4736,0,0,0,0,0,0,1.4582,1.4587,1.4624,1.4606,1.461,1.4611,1.4622,1.4621,1.4628,1.4631,1.4631,1.4624,1.4636,1.4639,1.4665,1.4681,1.4649,1.4651,1.4732,1.4734,1.4735,1.476,0,0,0,0,0,0,1.4581,1.4586,1.46,1.4606,1.4611,1.4646,1.4623,1.4623,1.4631,1.4629,1.4638,1.4638,1.4635,1.4662,1.4667,1.4683,1.4652,1.473,1.4733,1.4735,1.4758,1.4762,1.4766,0,0,0,0,0,1.4579,1.4607,1.46,1.4605,1.4627,1.4647,1.465,1.4646,1.4633,1.4645,1.4647,1.4638,1.4679,1.4665,1.467,1.4687,1.4729,1.4732,1.4735,1.4756,1.4761,1.4766,0,0,0,0,0,0,1.4604,1.4608,1.4601,1.4631,1.4639,1.4644,1.466,1.4652,1.4664,1.4662,1.4656,1.4658,1.4685,1.4689,1.4673,1.4719,1.4702,1.4706,1.4716,1.4722,1.4726,1.4724,1.4654,0,0,0,0,0,1.4612,1.4628,1.4631,1.4657,1.4661,1.466,1.4669,1.4664,1.4672,1.4676,1.4679,1.4688,1.4702,1.4712,1.4726,1.4758,1.4759,1.4772,1.4777,1.478,1.4783,1.4799,1.4804,1.4745,1.4745,1.4744,0,0,1.4631,1.4635,1.4646,1.4662,1.4668,1.4684,1.4663,1.4682,1.4693,1.4679,1.4702,1.4705,1.4714,1.4742,1.4755,1.4746,1.48,1.4783,1.4786,1.4788,1.4802,1.4808,1.4813,1.4746,1.4746,1.4746,0,0,1.4673,1.4678,1.47,1.4705,1.4713,1.4712,1.4717,1.4723,1.4724,1.4747,1.4736,1.475,1.4775,1.4782,1.4788,1.483,1.4821,1.4834,1.4857,1.4872,1.4877,1.4881,1.4895,1.49,1.4838,1.4838,1.4838,0,1.4696,1.4719,1.4713,1.4731,1.4738,1.4724,1.4746,1.4751,1.4764,1.4769,1.4759,1.4789,1.4794,1.4823,1.4833,1.4839,1.4844,1.4833,1.4876,1.4881,1.4884,1.4897,1.4903,1.4839,1.4839,1.4839,1.4839,0,1.4745,1.4762,1.4778,1.4789,1.4798,1.4818,1.4814,1.4824,1.4818,1.4818,1.4841,1.4846,1.486,1.4866,1.4862,1.4894,1.4888,1.4877,1.4859,1.4892,1.4904,1.4909,1.4841,1.4841,1.484,1.484,0,0,1.4805,1.481,1.4816,1.482,1.4826,1.4839,1.4857,1.487,1.4878,1.4886,1.4901,1.4922,1.4911,1.4919,1.4914,1.4928,1.4958,1.4915,1.4915,1.4922,1.4992,1.5,1.5006,1.4952,1.4953,1.4954,1.4991,0,1.4846,1.4878,1.4872,1.4903,1.4916,1.4903,1.4919,1.4924,1.4924,1.4935,1.4935,1.4949,1.4935,1.4939,1.4952,1.4952,1.4972,1.4949,1.4966,1.4967,1.4964,1.5012,1.5021,1.5056,1.4996,1.4997,1.4997,0,1.4899,1.4908,1.494,1.4942,1.4947,1.4962,1.4971,1.4983,1.4989,1.4987,1.4994,1.4987,1.5005,1.4986,1.501,1.4995,1.5001,1.5002,1.5003,1.5004,1.4984,1.5014,1.5067,1.5072,1.5005,1.5004,1.5004,0,1.4938,1.4958,1.4979,1.4982,1.4986,1.4996,1.4998,1.5002,1.5009,1.5018,1.5022,1.5033,1.5039,1.5047,1.5042,1.503,1.5067,1.5048,1.5066,1.5066,1.5074,1.5074,1.5128,1.5079,1.5079,1.5079,1.5079,0,1.4984,1.5004,1.4996,1.5009,1.503,1.5022,1.5043,1.5044,1.5047,1.506,1.5049,1.5061,1.5054,1.5065,1.5062,1.5082,1.5085,1.5084,1.5082,1.5084,1.5084,1.5088,1.5086,1.5081,1.508,1.508,1.508,0,1.5031,1.5027,1.5048,1.5049,1.5049,1.5065,1.5065,1.5077,1.5075,1.5091,1.5094,1.5091,1.5104,1.51,1.5114,1.5111,1.5136,1.5132,1.5134,1.5132,1.515,1.5148,1.5208,1.5215,1.5162,1.5163,1.5163,0,1.5061,1.5076,1.5077,1.5084,1.5086,1.5098,1.5105,1.5097,1.5104,1.511,1.5121,1.5132,1.5141,1.5161,1.5161,1.5171,1.5166,1.5187,1.5168,1.5169,1.5166,1.5164,1.5165,1.5191,1.5191,1.5192,1.5192,0,1.5114,1.511,1.512,1.5128,1.5135,1.5142,1.5147,1.5153,1.5146,1.5154,1.5166,1.5173,1.5186,1.5197,1.5206,1.5208,1.5198,1.5198,1.5202,1.5204,1.5204,1.5203,1.5143,1.5197,1.5196,1.5196,1.5196,1.5195,1.5153,1.5164,1.5166,1.5177,1.5179,1.5184,1.5194,1.5192,1.5202,1.5211,1.5206,1.522,1.5223,1.5234,1.5237,1.5247,1.5239,1.5246,1.5248,1.5249,1.5251,1.5203,1.5249,1.5249,1.5249,1.5249,1.5248,0,1.5204,1.5204,1.5214,1.522,1.5228,1.5217,1.5222,1.5229,1.5241,1.5245,1.5253,1.5266,1.5276,1.5275,1.5284,1.5292,1.5288,1.5295,1.5294,1.5294,1.5258,1.5253,1.5298,1.5298,1.5298,1.5298,1.5298,1.5298,1.5232,1.525,1.5246,1.5265,1.5265,1.5277,1.5281,1.5285,1.5287,1.5302,1.5309,1.5308,1.531,1.5318,1.5327,1.5326,1.533,1.5338,1.5336,1.5302,1.5297,1.5292,1.5287,1.5339,1.5339,1.5371,1.5371,1.5372]}]]